Regional Weather Roundup
Issued by NWS State College, PA

Home | Current Version | Previous Version | Text Only | Print | Product List | Glossary Off
Versions: 1 2 3 4 5 6 7 8 9 10 11 12 13 14 15 16 17 18 19 20 21 22 23 24 25 26 27 28 29 30 31 32 33 34 35 36 37 38 39 40 41 42 43 44 45 46 47 48 49 50

404
ASUS41 KCTP 110310
RWRCTP

REGIONAL WEATHER ROUNDUP
NATIONAL WEATHER SERVICE STATE COLLEGE PA
1000 PM EST WED FEB 10 2016

Note: "fair" indicates few or no clouds below 12,000 feet with no
significant weather and/or obstructions to visibility.

* = STATION THAT DOES NOT REPORT PRECIPITATION /E.G. RAIN...SNOW...ETC/
    THUNDER OR FOG.

PAZ002>004-007>009-013>016-020>023-029>032-110400-
WESTERN PENNSYLVANIA

CITY           SKY/WX    TMP DP  RH WIND       PRES   REMARKS
ERIE           CLOUDY    19   7  59 W16G23    29.88R WCI   4
MEADVILLE      LGT SNOW  16  11  80 W6        29.83R WCI   7
FRANKLIN*      CLOUDY    16   9  73 W6        29.84S WCI   7
NEW CASTLE     FLURRIES  17  12  80 W16       29.90R WCI   2
BEAVER COUNTY  NOT AVBL
BUTLER*        MOCLDY    18  10  73 W13G22    29.91S WCI   4
PITTSBURGH INT LGT SNOW  16  11  80 W12G22    29.90R WCI   3
PITTSBURGH     CLOUDY    17   9  70 W18G26    29.90R WCI   1
INDIANA*       CLOUDY    16  12  86 W13G21    29.88R FOG     WCI   2
LATROBE        CLOUDY    16  10  79 W20G31    29.91R WCI  -1
WASHINGTON CO* MOCLDY    16   9  73 SW10G20   29.94R WCI   3
$$

PAZ004>006-010>012-017>019-024>028-033>037-041-042-045-046-049>053-110400-
CENTRAL PENNSYLVANIA

CITY           SKY/WX    TMP DP  RH WIND       PRES   REMARKS
BRADFORD       FLURRIES  11   4  73 W9        29.73S WCI  -2
DUBOIS         PTCLDY    11   6  81 W6        29.78R WCI   1
CLEARFIELD     CLOUDY    15   7  70 NW9       29.80R WCI   3
JOHNSTOWN      LGT SNOW  13   5  70 W16G24    29.76R WCI  -3
ALTOONA        CLOUDY    18   8  65 W16G28    29.82S WCI   3
STATE COLLEGE  SNOW      18  15  88 NW9       29.81R VSB 1/2 WCI   7
WILLIAMSPORT   LGT SNOW  22  17  81 MISG      29.82R
SELINSGROVE    CLOUDY    23  11  60 W6        29.84R
FT INDIANTOWN  PTCLDY    23  10  57 W9        29.83R WCI  13
CAPITAL CITY   MOCLDY    23   8  52 W8        29.86R WCI  14
HARRISBURG     MOCLDY    24  12  60 W13       29.86R WCI  12
YORK           CLOUDY    21   9  59 W8        29.86R WCI  11
$$

PAZ038>040-043-044-047-048-054-055-060>062-067>071-110400-
EASTERN PENNSYLVANIA

CITY           SKY/WX    TMP DP  RH WIND       PRES   REMARKS
SCRANTON       CLOUDY    24  15  68 SW14      29.73R WCI  12
MOUNT POCONO   CLOUDY    20  11  68 W16G25    29.65R WCI   6
ALLENTOWN      CLOUDY    27  12  53 W15G22    29.79R
QUAKERTOWN*    NOT AVBL
READING        CLOUDY    26  11  52 W15G23    29.82R WCI  14
LANCASTER      CLOUDY    23  12  62 W13       29.85R WCI  11
COATESVILLE    PTCLDY    23  16  74 W18G24    29.83R WCI   9
POTTSTOWN      CLOUDY    25  12  58 W13G22    29.83R WCI  14
BLUE BELL        N/A     28  14  54 W9G18     29.80R
DOYLESTOWN     CLOUDY    26  12  55 W16G22    29.78R WCI  14
WILLOW GROVE   NOT AVBL
NORTH PHILA    CLOUDY    30  15  53 W13       29.82S
PHILADELPHIA   MOCLDY    31  11  43 W18G25    29.84R
$$




USA.gov is the U.S. government's official web portal to all federal, state and local government web resources and services.